Location: Karlsruhe
(49.0131°N, 8.3874°E)
Time: 15:20:22
(UTC+02:00)

ISS - Pass Details

Date: 19 May 2021
Orbit: 419 x 422 km, 51.6° (Epoch: 25 June)

Event Time Altitude Azimuth Distance (km) Brightness Sun altitude
Rises 23:33:38 0° 275° (W) 2,371 0.5 -16.9°
Reaches altitude 10° 23:35:46 10° 280° (W) 1,507 -0.5 -17.0°
Maximum altitude 23:39:05 52° 359° (N) 533 -2.9 -17.2°
Drops below altitude 10° 23:42:24 10° 77° (ENE) 1,509 -1.1 -17.5°
Enters shadow 23:42:43 - 78° (ENE) 1,630 -0.9 -17.5°
